THY9634 LTCD-LTAC

Flight info

Callsign THY9634
Flight time N/A
Altitude 38000
Route EZN UL615 SIV UT54 AVCES UL605 YUCEL
Aircraft B738/M-SDE2E3FGHIRWXY/LB1

Departure

Time 2026-05-06 22:24
Airport Erzincan Airport (LTCD)

Arrival

Time N/A
Airport Esenboğa International Airport (LTAC)
Time Latitude Longitude Altitude Speed Heading
2026-05-06 22:08 39.71661 39.52113 3793 ft 0 kts 21°
2026-05-06 22:16 39.71660 39.52112 3793 ft 0 kts 21°
2026-05-06 22:16 39.71647 39.52106 3793 ft 2 kts 21°
2026-05-06 22:16 39.71633 39.52099 3793 ft 2 kts 21°
2026-05-06 22:17 39.71619 39.52092 3793 ft 2 kts 21°
2026-05-06 22:17 39.71605 39.52085 3793 ft 2 kts 21°
2026-05-06 22:17 39.71592 39.52075 3793 ft 2 kts 49°
2026-05-06 22:17 39.71584 39.52059 3793 ft 2 kts 76°
2026-05-06 22:18 39.71583 39.52040 3793 ft 2 kts 103°
2026-05-06 22:18 39.71585 39.52031 3793 ft 1 kts 115°
2026-05-06 22:18 39.71587 39.52027 3793 ft 0 kts 111°
2026-05-06 22:20 39.71586 39.52030 3793 ft 2 kts 111°
2026-05-06 22:20 39.71576 39.52063 3793 ft 4 kts 111°
2026-05-06 22:20 39.71563 39.52101 3793 ft 6 kts 122°
2026-05-06 22:20 39.71504 39.52100 3793 ft 11 kts 198°
2026-05-06 22:21 39.71429 39.52065 3793 ft 11 kts 202°
2026-05-06 22:21 39.71361 39.52029 3793 ft 9 kts 199°
2026-05-06 22:21 39.71207 39.52323 3793 ft 6 kts 110°
2026-05-06 22:21 39.70953 39.53210 3793 ft 6 kts 110°
2026-05-06 22:22 39.70736 39.53952 3793 ft 6 kts 111°
2026-05-06 22:22 39.70676 39.54187 3793 ft 6 kts 89°
2026-05-06 22:22 39.70690 39.54282 3793 ft 14 kts 75°
2026-05-06 22:22 39.70634 39.54303 3793 ft 11 kts 274°
2026-05-06 22:23 39.70651 39.54246 3793 ft 5 kts 289°
2026-05-06 22:23 39.70657 39.54228 3793 ft 0 kts 290°
2026-05-06 22:23 39.70660 39.54216 3793 ft 3 kts 291°
2026-05-06 22:23 39.70723 39.54004 3793 ft 59 kts 291°
2026-05-06 22:24 39.70954 39.53207 3793 ft 129 kts 291°
2026-05-06 22:24 39.71347 39.51885 3864 ft 177 kts 291°
2026-05-06 22:24 39.71823 39.50416 4591 ft 182 kts 296°
2026-05-06 22:24 39.72467 39.48910 5175 ft 199 kts 302°
2026-05-06 22:25 39.73203 39.47375 5838 ft 206 kts 302°
2026-05-06 22:25 39.73969 39.45723 6281 ft 222 kts 301°
2026-05-06 22:25 39.74744 39.43994 6914 ft 229 kts 301°
2026-05-06 22:25 39.75584 39.42126 7282 ft 249 kts 301°
2026-05-06 22:26 39.76485 39.40111 7769 ft 265 kts 301°
2026-05-06 22:26 39.77402 39.38046 8515 ft 272 kts 301°
2026-05-06 22:26 39.78379 39.35845 9059 ft 288 kts 301°
2026-05-06 22:26 39.79395 39.33563 9822 ft 295 kts 300°
2026-05-06 22:27 39.80392 39.31219 10556 ft 302 kts 293°
2026-05-06 22:27 39.80829 39.28525 11065 ft 316 kts 269°
2026-05-06 22:27 39.80728 39.25726 11540 ft 331 kts 268°
2026-05-06 22:27 39.80767 39.22673 12057 ft 345 kts 270°
2026-05-06 22:28 39.80753 39.19553 12835 ft 351 kts 268°
2026-05-06 22:28 39.80673 39.16365 13699 ft 353 kts 267°
2026-05-06 22:28 39.80577 39.13200 14485 ft 358 kts 267°
2026-05-06 22:28 39.80489 39.09993 15271 ft 361 kts 267°
2026-05-06 22:29 39.80411 39.06715 16037 ft 365 kts 268°
2026-05-06 22:29 39.80236 38.98084 17658 ft 374 kts 268°
2026-05-06 22:29 39.80109 38.91261 18848 ft 381 kts 268°
2026-05-06 22:29 39.79984 38.84334 19996 ft 389 kts 268°
2026-05-06 22:30 39.79847 38.77328 21115 ft 395 kts 267°
2026-05-06 22:30 39.79694 38.70177 22148 ft 402 kts 267°
2026-05-06 22:30 39.79532 38.62871 23190 ft 408 kts 267°
2026-05-06 22:30 39.79367 38.55448 24131 ft 415 kts 267°
2026-05-06 22:31 39.79198 38.47872 25234 ft 419 kts 267°
2026-05-06 22:31 39.79027 38.40303 26248 ft 422 kts 267°
2026-05-06 22:31 39.78854 38.32706 27213 ft 425 kts 266°
2026-05-06 22:31 39.78667 38.24980 28009 ft 430 kts 266°
2026-05-06 22:32 39.78465 38.17212 28861 ft 433 kts 266°
2026-05-06 22:32 39.78260 38.09462 29567 ft 437 kts 266°
2026-05-06 22:32 39.78046 38.01463 30298 ft 440 kts 266°
2026-05-06 22:32 39.77828 37.93510 30945 ft 442 kts 266°
2026-05-06 22:33 39.77607 37.85606 31900 ft 437 kts 266°
2026-05-06 22:33 39.77385 37.77743 32902 ft 432 kts 267°
2026-05-06 22:33 39.77159 37.69904 33677 ft 430 kts 267°
2026-05-06 22:33 39.76931 37.62137 34364 ft 430 kts 267°
2026-05-06 22:34 39.76696 37.54321 35023 ft 429 kts 267°
2026-05-06 22:34 39.76457 37.46563 35739 ft 428 kts 267°
2026-05-06 22:34 39.76214 37.38827 36251 ft 429 kts 267°
2026-05-06 22:34 39.75964 37.31046 36647 ft 430 kts 266°
2026-05-06 22:35 39.75708 37.23240 37175 ft 430 kts 266°
2026-05-06 22:35 39.75447 37.15467 37575 ft 431 kts 266°
2026-05-06 22:35 39.75180 37.07659 37910 ft 433 kts 266°
2026-05-06 22:35 39.74906 36.99807 38071 ft 435 kts 266°
2026-05-06 22:36 39.74343 36.84099 38069 ft 434 kts 266°
2026-05-06 22:36 39.73726 36.67549 38071 ft 430 kts 267°
2026-05-06 22:37 39.73427 36.59745 38062 ft 433 kts 267°
2026-05-06 22:37 39.73125 36.51986 38046 ft 431 kts 267°
2026-05-06 22:38 39.72819 36.44240 38042 ft 431 kts 267°
2026-05-06 22:38 39.72504 36.36426 38046 ft 431 kts 267°
2026-05-06 22:39 39.72185 36.28659 38049 ft 431 kts 266°
2026-05-06 22:39 39.71862 36.20911 38049 ft 433 kts 266°
2026-05-06 22:40 39.71534 36.13135 38042 ft 431 kts 267°
2026-05-06 22:40 39.71201 36.05374 38034 ft 431 kts 267°
2026-05-06 22:41 39.70690 35.93698 38032 ft 431 kts 267°
2026-05-06 22:42 39.70342 35.85916 38039 ft 432 kts 267°
2026-05-06 22:42 39.69990 35.78144 38049 ft 432 kts 267°
2026-05-06 22:43 39.69632 35.70355 38052 ft 432 kts 267°
2026-05-06 22:43 39.69270 35.62596 38059 ft 433 kts 267°
2026-05-06 22:44 39.68901 35.54809 38058 ft 433 kts 267°
2026-05-06 22:44 39.68527 35.47028 38063 ft 432 kts 268°
2026-05-06 22:45 39.68149 35.39271 38062 ft 432 kts 267°
2026-05-06 22:45 39.67762 35.31441 38066 ft 434 kts 267°
2026-05-06 22:46 39.67371 35.23618 38066 ft 433 kts 267°
2026-05-06 22:46 39.66976 35.15847 38062 ft 432 kts 267°
2026-05-06 22:47 39.66577 35.08081 38062 ft 434 kts 267°
2026-05-06 22:47 39.66170 35.00277 38070 ft 434 kts 267°
2026-05-06 22:48 39.65758 34.92476 38062 ft 433 kts 267°
2026-05-06 22:48 39.65343 34.84725 38080 ft 433 kts 267°
2026-05-06 22:49 39.64921 34.76933 38062 ft 433 kts 267°
2026-05-06 22:49 39.64494 34.69144 38065 ft 433 kts 267°
2026-05-06 22:50 39.64064 34.61393 38079 ft 432 kts 267°
2026-05-06 22:50 39.63629 34.53648 38067 ft 432 kts 268°
2026-05-06 22:51 39.63190 34.45909 38073 ft 431 kts 268°
2026-05-06 22:51 39.63745 34.38252 38005 ft 425 kts 295°
2026-05-06 22:51 39.65295 34.35056 37626 ft 421 kts 311°
2026-05-06 22:52 39.67327 34.32312 37047 ft 422 kts 315°
2026-05-06 22:52 39.69416 34.29677 36449 ft 422 kts 315°
2026-05-06 22:52 39.71526 34.27023 35949 ft 420 kts 315°
2026-05-06 22:52 39.73597 34.24391 35453 ft 418 kts 315°
2026-05-06 22:53 39.75657 34.21742 34944 ft 415 kts 315°
2026-05-06 22:53 39.77681 34.19111 34532 ft 410 kts 315°
2026-05-06 22:53 39.79682 34.16484 34062 ft 407 kts 315°
2026-05-06 22:53 39.81640 34.13900 33795 ft 398 kts 315°
2026-05-06 22:54 39.83601 34.11301 33334 ft 397 kts 315°
2026-05-06 22:54 39.85508 34.08764 33109 ft 389 kts 315°
2026-05-06 22:54 39.87409 34.06230 32721 ft 386 kts 315°
2026-05-06 22:54 39.89307 34.03697 32100 ft 391 kts 316°
2026-05-06 22:55 39.91195 34.01178 31360 ft 395 kts 316°
2026-05-06 22:55 39.93105 33.98624 30452 ft 393 kts 316°
2026-05-06 22:55 39.94980 33.96114 29401 ft 392 kts 316°
2026-05-06 22:55 39.96859 33.93595 28339 ft 390 kts 316°
2026-05-06 22:56 39.98749 33.91061 27269 ft 388 kts 316°
2026-05-06 22:56 40.00621 33.88548 26195 ft 386 kts 316°
2026-05-06 22:56 40.02464 33.86074 25126 ft 385 kts 316°
2026-05-06 22:56 40.04333 33.83563 24032 ft 384 kts 316°
2026-05-06 22:57 40.06176 33.81083 22981 ft 382 kts 316°
2026-05-06 22:57 40.08006 33.78619 21942 ft 381 kts 316°
2026-05-06 22:57 40.09841 33.76144 20907 ft 381 kts 315°
2026-05-06 22:57 40.11669 33.73678 19875 ft 380 kts 315°
2026-05-06 22:58 40.13501 33.71205 18836 ft 380 kts 315°
2026-05-06 22:58 40.15326 33.68741 17823 ft 380 kts 315°
2026-05-06 22:58 40.17136 33.66298 16823 ft 379 kts 315°
2026-05-06 22:58 40.18956 33.63850 15820 ft 378 kts 314°
2026-05-06 22:59 40.20775 33.61417 14813 ft 377 kts 315°
2026-05-06 22:59 40.21628 33.60282 14344 ft 376 kts 314°
2026-05-06 22:59 40.23467 33.57795 13317 ft 374 kts 314°
2026-05-06 22:59 40.25253 33.55361 12310 ft 372 kts 314°
2026-05-06 23:00 40.27034 33.52931 11309 ft 371 kts 314°
2026-05-06 23:00 40.28778 33.50551 10719 ft 357 kts 314°
2026-05-06 23:00 40.30455 33.48268 10374 ft 340 kts 314°
2026-05-06 23:00 40.32046 33.46107 10325 ft 314 kts 314°
2026-05-06 23:01 40.33496 33.44134 10316 ft 291 kts 313°
2026-05-06 23:01 40.34815 33.42264 10303 ft 270 kts 313°
2026-05-06 23:01 40.36089 33.40535 10098 ft 258 kts 314°
2026-05-06 23:01 40.37323 33.38901 9849 ft 249 kts 314°
2026-05-06 23:02 40.38535 33.37301 9593 ft 242 kts 315°
2026-05-06 23:02 40.39670 33.35730 9332 ft 235 kts 304°
2026-05-06 23:02 40.40387 33.33857 9108 ft 224 kts 288°
2026-05-06 23:02 40.40849 33.31943 8840 ft 219 kts 282°
2026-05-06 23:03 40.40994 33.29970 8586 ft 216 kts 268°
2026-05-06 23:03 40.40992 33.29753 8560 ft 216 kts 268°